Alma, MI

10:16 AM EST on November 14, 2019 (GMT -0500)
Gratiot Community

Weather History for KAMN - June, 2019

Change the Weather History Date:

Monday, June 10, 2019

  Actual Average Record
Temperature  
Mean Temperature 59 °F -  
Max Temperature 68 °F 78 °F 95 °F (1999)
Min Temperature 50 °F 52 °F 34 °F (1980)
Degree Days  
Heating Degree Days 6    
Growing Degree Days 9 (Base 50)    
Moisture  
Dew Point 57 °F    
Average Humidity 80    
Maximum Humidity 95    
Minimum Humidity 39    
Precipitation  
Precipitation 0.00 in - - ()
Sea Level Pressure  
Sea Level Pressure 29.96 in    
Wind  
Wind Speed 5 mph (WNW)    
Max Wind Speed 18 mph    
Max Gust Speed 26 mph    
Visibility 7 miles    
Events Rain    
Averages and records for this station are not official NWS values.
T = Trace of Precipitation, MM = Missing Value Source: NWS Daily Summary

Daily Weather History Graph

Daily Weather History Graph

Search for Another Location

Airport or City:

Astronomy

Jun. 10, 2019 Rise Set
Actual Time 5:58 AM EDT 9:18 PM EDT
Civil Twilight 5:22 AM EDT 9:53 PM EDT
Nautical Twilight 4:36 AM EDT 10:39 PM EDT
Astronomical Twilight 3:40 AM EDT 11:36 PM EDT
Moon 1:54 PM EDT (6/10) 2:24 AM EDT (6/10)
Length of Visible Light 16h 30m
Length of Day
15h 20m
First Quarter, 55% of the Moon is Illuminated
Jun 10
First Quarter
Jun 17
Full
Jun 25
Last Quarter
Jul 2
New
Jul 9
First Quarter

Hourly Weather History & Observations

Time (EDT) Temp. Dew Point Humidity Pressure Visibility Wind Dir Wind Speed Gust Speed Precip Events Conditions
12:15 AM 68.2 °F 66.4 °F 94% 29.94 in 7.0 mi Calm Calm - N/A Rain Light Rain
12:38 AM 68.2 °F 66.4 °F 94% 29.93 in 5.0 mi Calm Calm - N/A   Overcast
12:55 AM 68.2 °F 66.2 °F 93% 29.92 in 5.0 mi Calm Calm - N/A   Overcast
1:15 AM 68.2 °F 66.4 °F 94% 29.91 in 5.0 mi Calm Calm - N/A   Overcast
1:16 AM 68.2 °F 66.4 °F 94% 29.91 in 5.0 mi Calm Calm - N/A   Overcast
1:35 AM 68.2 °F 66.4 °F 94% 29.91 in 4.0 mi Calm Calm - N/A   Overcast
1:59 AM 68.2 °F 66.4 °F 94% 29.90 in 4.0 mi Calm Calm - N/A   Overcast
2:17 AM 68.0 °F 66.2 °F 94% 29.89 in 3.0 mi Calm Calm - N/A   Overcast
2:35 AM 68.0 °F 66.4 °F 95% 29.89 in 2.5 mi Calm Calm - N/A Rain Light Rain
2:36 AM 68.0 °F 66.4 °F 95% 29.89 in 2.5 mi Calm Calm - N/A Rain Light Rain
2:55 AM 68.0 °F 66.4 °F 95% 29.88 in 2.5 mi Calm Calm - N/A Rain Light Rain
2:56 AM 68.0 °F 66.4 °F 95% 29.88 in 2.5 mi Calm Calm - N/A Rain Light Rain
3:15 AM 68.0 °F 66.4 °F 95% 29.87 in 2.5 mi Calm Calm - N/A   Drizzle
3:20 AM 68.0 °F 66.4 °F 95% 29.87 in 2.5 mi Calm Calm - N/A   Drizzle
3:38 AM 68.2 °F 66.6 °F 95% 29.86 in 2.5 mi Calm Calm - N/A Rain Rain
3:56 AM 68.0 °F 66.4 °F 95% 29.86 in 3.0 mi SSW 3.5 mph - N/A Rain Rain
4:15 AM 68.2 °F 66.6 °F 95% 29.86 in 3.0 mi South 3.5 mph - N/A Rain Rain
4:16 AM 68.2 °F 66.6 °F 95% 29.86 in 3.0 mi South 3.5 mph - N/A Rain Rain
4:35 AM 68.4 °F 66.7 °F 95% 29.85 in 3.0 mi SSW 4.6 mph - N/A Rain Rain
4:36 AM 68.4 °F 66.7 °F 95% 29.85 in 3.0 mi SW 3.5 mph - N/A Rain Rain
4:59 AM 68.4 °F 66.7 °F 95% 29.85 in 2.5 mi South 3.5 mph - N/A   Drizzle
5:17 AM 68.4 °F 66.7 °F 95% 29.84 in 2.5 mi Calm Calm - N/A Rain Rain
5:35 AM 68.2 °F 66.6 °F 95% 29.84 in 2.5 mi Calm Calm - N/A Rain Light Rain
5:55 AM 68.2 °F 66.6 °F 95% 29.85 in 2.5 mi Calm Calm - N/A   Light Drizzle
5:56 AM 68.2 °F 66.6 °F 95% 29.85 in 2.5 mi SW 3.5 mph - N/A   Light Drizzle
6:15 AM 68.4 °F 66.7 °F 95% 29.85 in 3.0 mi Calm Calm - N/A   Overcast
6:20 AM 68.4 °F 66.7 °F 95% 29.85 in 3.0 mi Calm Calm - N/A   Overcast
6:38 AM 68.4 °F 66.7 °F 95% 29.86 in 5.0 mi West 4.6 mph - N/A Rain Light Rain
6:56 AM 68.0 °F 66.4 °F 95% 29.86 in 5.0 mi WNW 6.9 mph - N/A   Drizzle
7:15 AM 67.5 °F 65.8 °F 95% 29.86 in 2.0 mi WNW 6.9 mph - N/A   Heavy Drizzle
7:35 AM 67.1 °F 65.5 °F 95% 29.86 in 3.0 mi WNW 8.1 mph - N/A   Light Drizzle
7:36 AM 67.1 °F 65.3 °F 94% 29.86 in 4.0 mi WNW 6.9 mph - N/A   Light Drizzle
7:59 AM 66.6 °F 64.8 °F 94% 29.86 in 4.0 mi WNW 8.1 mph - N/A Rain Rain
8:17 AM 66.4 °F 64.6 °F 94% 29.86 in 5.0 mi WNW 8.1 mph - N/A Rain Rain
8:35 AM 66.2 °F 64.4 °F 94% 29.87 in 7.0 mi WNW 11.5 mph - N/A   Drizzle
8:55 AM 65.7 °F 63.7 °F 93% 29.88 in 10.0 mi WNW 10.4 mph - N/A   Overcast
8:56 AM 65.7 °F 63.7 °F 93% 29.88 in 10.0 mi WNW 10.4 mph - N/A   Overcast
9:15 AM 65.7 °F 63.7 °F 93% 29.88 in 10.0 mi WNW 9.2 mph - N/A   Overcast
9:38 AM 65.5 °F 63.1 °F 92% 29.88 in 10.0 mi WNW 9.2 mph - N/A   Overcast
9:56 AM 65.5 °F 63.0 °F 92% 29.89 in 10.0 mi WNW 12.7 mph 18.4 mph N/A   Overcast
10:15 AM 65.5 °F 62.8 °F 91% 29.89 in 10.0 mi WNW 9.2 mph - N/A   Overcast
10:16 AM 65.3 °F 62.6 °F 91% 29.89 in 10.0 mi WNW 9.2 mph - N/A   Overcast
10:35 AM 66.0 °F 62.8 °F 89% 29.89 in 10.0 mi West 6.9 mph - N/A   Overcast
10:59 AM 64.6 °F 61.5 °F 90% 29.90 in 5.0 mi West 12.7 mph - N/A   Overcast
11:17 AM 63.5 °F 60.8 °F 91% 29.91 in 5.0 mi West 12.7 mph - N/A   Overcast
11:35 AM 61.7 °F 58.8 °F 90% 29.92 in 4.0 mi West 16.1 mph 23.0 mph N/A   Overcast
11:36 AM 61.5 °F 58.6 °F 90% 29.92 in 4.0 mi West 15.0 mph 23.0 mph N/A   Overcast
11:55 AM 61.2 °F 58.3 °F 90% 29.93 in 10.0 mi WNW 18.4 mph 26.5 mph N/A   Overcast
11:56 AM 61.0 °F 58.1 °F 90% 29.93 in 10.0 mi WNW 17.3 mph 26.5 mph N/A   Overcast
12:15 PM 61.0 °F 56.7 °F 86% 29.94 in 10.0 mi NW 13.8 mph 24.2 mph N/A   Overcast
12:20 PM 61.9 °F 57.2 °F 85% 29.94 in 10.0 mi NW 12.7 mph 24.2 mph N/A   Overcast
12:38 PM 60.4 °F 55.6 °F 84% 29.96 in 10.0 mi WNW 13.8 mph 21.9 mph N/A   Overcast
12:56 PM 60.3 °F 55.4 °F 84% 29.95 in 10.0 mi NW 13.8 mph 19.6 mph N/A   Overcast
1:15 PM 64.0 °F 56.7 °F 77% 29.95 in 10.0 mi WNW 12.7 mph 18.4 mph N/A   Overcast
1:59 PM 62.6 °F 53.6 °F 72% 29.97 in 10.0 mi WNW 17.3 mph 24.2 mph N/A   Overcast
3:05 PM 60.8 °F 53.6 °F 77% 30.00 in 10.0 mi NW 15.0 mph 25.3 mph N/A   Overcast
3:41 PM 62.6 °F 53.6 °F 72% 30.01 in 10.0 mi NW 16.1 mph 21.9 mph N/A   Overcast
4:13 PM 62.4 °F 52.2 °F 69% 30.02 in 10.0 mi WNW 13.8 mph 26.5 mph N/A   Overcast
4:15 PM 62.6 °F 52.5 °F 70% 30.03 in 10.0 mi WNW 15.0 mph 26.5 mph N/A   Overcast
4:16 PM 62.8 °F 52.5 °F 69% 30.03 in 10.0 mi NW 16.1 mph 26.5 mph N/A   Overcast
4:35 PM 62.8 °F 51.3 °F 66% 30.03 in 10.0 mi WNW 12.7 mph 20.7 mph N/A   Overcast
4:58 PM 64.2 °F 51.1 °F 62% 30.03 in 10.0 mi WNW 17.3 mph 21.9 mph N/A   Overcast
5:16 PM 64.6 °F 49.8 °F 59% 30.03 in 10.0 mi NW 16.1 mph 26.5 mph N/A   Mostly Cloudy
5:35 PM 65.7 °F 50.5 °F 58% 30.03 in 10.0 mi WNW 15.0 mph 20.7 mph N/A   Scattered Clouds
5:36 PM 65.8 °F 50.7 °F 58% 30.03 in 10.0 mi WNW 15.0 mph 20.7 mph N/A   Scattered Clouds
5:55 PM 67.6 °F 48.9 °F 51% 30.04 in 10.0 mi NW 15.0 mph 24.2 mph N/A   Scattered Clouds
5:56 PM 67.6 °F 48.2 °F 50% 30.03 in 10.0 mi WNW 16.1 mph 21.9 mph N/A   Scattered Clouds
6:19 PM 66.9 °F 47.3 °F 49% 30.04 in 10.0 mi NNW 11.5 mph 20.7 mph N/A   Scattered Clouds
6:37 PM 66.6 °F 46.6 °F 49% 30.04 in 10.0 mi NW 9.2 mph 16.1 mph N/A   Scattered Clouds
6:55 PM 67.5 °F 42.4 °F 40% 30.04 in 10.0 mi WNW 16.1 mph 23.0 mph N/A   Mostly Cloudy
7:15 PM 67.1 °F 41.0 °F 39% 30.05 in 10.0 mi WNW 13.8 mph 19.6 mph N/A   Scattered Clouds
7:35 PM 66.6 °F 40.8 °F 39% 30.06 in 10.0 mi WNW 15.0 mph 23.0 mph N/A   Clear
7:58 PM 66.2 °F 41.5 °F 41% 30.06 in 10.0 mi WNW 11.5 mph 19.6 mph N/A   Clear
8:16 PM 65.5 °F 41.0 °F 41% 30.07 in 10.0 mi WNW 11.5 mph - N/A   Clear
8:35 PM 64.6 °F 41.2 °F 42% 30.08 in 10.0 mi WNW 9.2 mph - N/A   Clear
8:36 PM 64.4 °F 41.0 °F 42% 30.08 in 10.0 mi WNW 8.1 mph - N/A   Clear
8:55 PM 63.0 °F 41.9 °F 46% 30.08 in 10.0 mi WNW 5.8 mph - N/A   Clear
8:56 PM 63.0 °F 42.1 °F 46% 30.08 in 10.0 mi WNW 5.8 mph - N/A   Clear
9:19 PM 59.4 °F 44.1 °F 57% 30.09 in 10.0 mi West 4.6 mph - N/A   Clear
9:37 PM 58.5 °F 43.7 °F 58% 30.09 in 10.0 mi West 4.6 mph - N/A   Clear
9:55 PM 56.8 °F 44.2 °F 63% 30.10 in 10.0 mi West 3.5 mph - N/A   Clear
10:15 PM 56.8 °F 44.1 °F 62% 30.11 in 10.0 mi West 3.5 mph - N/A   Clear
10:16 PM 56.7 °F 44.1 °F 63% 30.11 in 10.0 mi West 3.5 mph - N/A   Clear
10:35 PM 53.6 °F 45.3 °F 74% 30.11 in 10.0 mi Calm Calm - N/A   Clear
10:40 PM 54.0 °F 46.9 °F 77% 30.11 in 10.0 mi Calm Calm - N/A   Clear
10:58 PM 52.7 °F 48.0 °F 84% 30.11 in 10.0 mi Calm Calm - N/A   Clear
11:16 PM 52.2 °F 48.6 °F 88% 30.12 in 10.0 mi Calm Calm - N/A   Clear
11:35 PM 50.0 °F 46.8 °F 89% 30.12 in 10.0 mi Calm Calm - N/A   Clear
11:55 PM 50.2 °F 47.7 °F 91% 30.12 in 10.0 mi Calm Calm - N/A   Clear